Location: Équennes
(49.7375°N, 1.9622°E)
Time: 22:23:59
(UTC+00:00)

NOSS 2-1 (E) - Visible Passes

Search period start: 27 May 2024 00:00
Search period end: 06 June 2024 00:00
Orbit: 385 x 1749 km, 63.3° (Epoch: 07 May)

Date Brightness Start Highest point End Pass type
(mag) Time Alt. Az. Time Alt. Az. Time Alt. Az.
27 May 4.7 22:06:01 10° WNW 22:09:44 34° SW 22:12:25 21° S visible
28 May 3.8 21:09:35 10° NW 21:13:27 68° SW 21:17:49 15° SSE visible
28 May 6.2 23:01:43 10° WSW 23:02:58 11° WSW 23:04:18 10° SW visible
29 May 5.4 22:03:25 10° WNW 22:06:47 22° WSW 22:09:49 14° SSW visible
30 May 4.4 21:06:39 10° NW 21:10:29 44° SW 21:15:16 12° SSE visible
31 May 6.0 22:01:11 10° W 22:03:43 15° WSW 22:06:39 10° SSW visible
01 Jun 5.2 21:03:49 10° WNW 21:07:26 29° SW 21:12:10 10° S visible
03 Jun 5.8 21:01:09 10° WNW 21:04:17 19° WSW 21:08:08 10° SSW visible
05 Jun 6.4 20:59:06 10° W 21:01:02 12° WSW 21:03:11 10° SW visible
